Wind_Speed
47 48 48 48 48 47 47 47 47 47 47 46 46 46 45 45 44 43 43 41 41 41 40 40 40 39 39 39 37 37 37 36 35 34 33 33 33 33 33 33 32 32 32
47 48 48 49 49 48 47 48 48 48 48 47 47 47 47 47 47 46 45 45 44 43 43 42 42 41 41 40 39 38 38 38 37 36 36 35 35 34 34 34 34 34 33
46 47 49 49 49 48 48 48 49 50 49 48 49 49 50 49 49 49 48 46 46 46 45 44 44 43 42 42 41 40 40 39 39 38 37 37 36 36 36 36 36 36 36
45 46 48 49 49 48 47 48 49 50 50 50 50 50 49 50 50 50 49 49 48 47 47 46 45 44 44 43 42 42 41 41 41 41 40 39 38 38 37 37 38 38 38
44 45 46 47 48 48 48 48 48 49 50 50 50 51 51 51 51 51 51 51 51 50 49 48 48 46 46 45 45 44 44 43 43 42 42 41 40 40 40 39 39 39 39
43 43 44 46 46 47 47 47 47 48 49 50 50 51 51 51 52 52 52 52 52 51 51 50 50 50 49 48 47 46 45 45 44 44 43 43 42 42 42 41 41 41 41
43 43 43 44 44 44 45 46 47 47 48 49 49 50 51 52 52 52 53 53 53 53 52 52 52 51 51 50 50 48 47 47 46 46 45 45 45 45 44 44 44 43 43
43 43 43 44 43 43 44 44 45 47 47 48 48 48 49 50 50 51 51 52 53 53 54 52 52 52 52 52 51 50 49 49 47 47 47 47 47 46 46 46 46 46 45
43 44 44 44 44 43 43 44 45 47 48 48 48 48 48 49 50 51 51 52 53 53 54 54 53 53 53 53 52 52 52 51 51 50 49 49 48 48 48 48 48 48 47
43 43 44 45 45 44 44 44 45 47 48 48 49 48 47 48 49 50 51 52 53 53 53 54 54 54 54 54 54 54 54 54 53 53 53 52 51 50 49 49 49 49 49
42 43 44 44 45 45 45 45 45 46 47 48 49 48 48 48 49 49 50 51 52 53 54 53 54 54 54 55 56 56 55 54 54 54 54 54 54 52 51 51 51 50 50
41 42 43 44 44 45 45 46 47 46 46 47 48 49 49 49 50 50 51 51 51 52 52 53 53 54 55 55 56 56 56 56 55 55 55 55 55 54 53 53 53 53 53
41 41 42 43 44 45 45 46 47 47 47 47 48 49 50 50 51 51 51 51 52 52 52 52 53 54 55 56 55 56 56 56 56 56 56 56 55 55 56 56 56 56 55
39 40 42 43 44 45 46 46 47 48 48 48 49 50 51 51 52 52 51 52 52 52 52 52 52 52 53 54 55 56 57 57 57 57 57 57 57 57 57 57 58 58 58
38 39 40 41 42 43 45 46 47 48 48 49 50 50 51 52 52 52 53 53 53 53 53 52 53 53 53 54 54 55 56 57 57 57 57 58 58 59 58 59 59 60 60
37 37 38 39 39 40 42 44 45 46 47 48 49 50 51 51 52 52 53 53 54 54 54 53 53 54 54 54 55 56 56 56 56 56 56 57 58 59 60 60 60 61 62
35 36 37 38 39 40 41 42 43 45 46 47 48 49 49 50 51 52 52 52 53 53 54 54 54 54 55 55 56 56 56 55 56 56 56 57 57 58 60 60 61 62 63
36 36 37 38 38 40 41 42 43 44 45 46 47 48 48 49 50 50 51 51 52 53 54 54 55 55 55 55 55 56 56 57 57 58 58 58 59 59 59 60 61 62 63
36 36 37 38 39 40 41 42 43 43 44 45 46 47 47 48 49 50 51 51 52 53 53 53 54 54 55 56 57 57 56 56 57 57 57 58 58 58 59 60 60 61 61
36 37 38 39 39 40 41 42 43 43 44 45 45 46 47 47 48 48 49 51 52 52 53 53 53 54 55 56 56 57 57 57 57 57 57 57 58 58 59 60 60 60 60
35 35 36 37 38 39 39 40 41 41 43 44 44 44 45 46 46 46 47 48 49 50 50 52 52 53 54 54 55 56 57 57 57 57 57 58 58 59 59 59 59 59 59
34 35 36 36 37 38 38 38 39 40 41 41 42 43 43 43 44 45 45 46 46 47 48 48 50 51 51 53 54 55 56 56 56 57 57 58 59 60 60 59 59 59 59
33 34 35 36 36 36 36 37 37 38 39 39 40 41 41 42 43 43 43 44 44 45 46 47 47 48 49 51 52 53 54 55 56 56 56 57 58 58 59 59 59 59 59
32 32 33 33 33 34 34 35 36 36 36 37 38 39 40 41 41 42 41 42 42 43 44 44 45 46 48 49 50 51 52 52 53 54 54 54 55 56 57 57 58 58 58
31 32 32 32 32 32 32 32 33 34 35 36 36 38 38 39 40 40 41 41 42 43 43 43 44 45 46 47 48 49 49 50 51 51 51 52 52 53 53 54 54 54 55
31 31 31 32 32 31 31 31 32 32 33 34 34 36 37 38 39 40 40 41 42 43 43 43 43 44 44 45 46 47 47 47 48 48 49 49 50 50 50 51 51 51 51
Wind_Direction
247 246 246 246 244 245 245 246 246 245 246 246 246 246 247 248 249 249 249 248 248 248 249 252 253 253 253 253 255 256 256 256 257 257 258 260 262 263 262 262 262 264 265
247 247 246 246 245 246 245 245 246 245 245 246 246 247 248 249 248 248 248 248 249 249 248 250 252 253 253 254 254 255 255 256 256 257 258 260 262 262 263 262 263 264 265
249 248 247 246 246 246 246 245 246 245 244 245 246 247 248 249 249 248 248 248 249 250 250 250 252 252 253 254 255 256 256 256 256 257 258 260 261 263 263 263 263 264 264
250 250 248 247 247 247 247 246 245 246 245 245 246 247 248 248 249 249 249 249 249 250 250 250 251 252 253 254 255 256 257 256 257 258 258 259 260 262 263 263 263 264 265
250 250 249 248 248 247 248 247 246 246 247 246 247 248 248 249 249 249 249 250 249 250 250 250 250 251 252 254 255 256 256 257 257 258 259 260 260 261 262 263 263 264 266
250 249 249 248 247 247 248 248 248 247 247 247 248 248 249 248 248 248 248 248 249 250 250 251 252 253 253 254 255 256 256 257 257 258 259 260 261 262 263 263 264 265 266
251 250 249 249 248 248 249 249 249 249 248 248 249 250 249 248 247 247 248 248 249 250 251 251 252 252 253 253 254 255 255 256 257 258 259 260 260 261 262 263 264 265 266
252 250 249 249 249 249 249 250 249 249 249 249 250 250 250 249 249 248 249 249 250 251 250 251 252 252 253 254 254 254 255 256 257 258 259 260 260 262 263 263 264 265 265
253 252 251 250 250 250 251 251 250 249 249 249 250 251 251 251 250 250 249 250 251 250 250 251 252 252 253 253 253 254 255 256 257 258 259 260 261 261 264 264 264 265 265
254 253 252 251 250 250 251 251 251 250 250 250 250 251 251 251 252 252 252 251 250 250 251 251 252 252 253 254 254 255 256 256 258 259 260 262 263 263 263 264 264 264 265
254 253 252 251 251 251 251 251 251 251 251 251 251 251 251 251 251 251 252 252 251 251 251 252 252 252 253 254 255 256 256 257 258 259 261 262 263 263 263 263 264 265 266
255 253 252 251 251 251 250 250 250 251 251 251 251 251 252 251 251 252 251 251 251 251 252 253 253 253 253 254 255 256 256 257 258 259 260 261 262 263 263 264 264 265 266
255 253 252 251 251 251 251 250 250 250 250 251 251 251 251 251 251 252 252 252 252 253 253 253 254 255 255 256 256 256 257 259 259 259 260 261 261 262 263 264 265 266 266
255 253 252 252 252 252 252 252 251 251 251 251 251 251 250 251 252 252 252 252 253 254 254 254 255 256 257 258 258 258 259 259 260 260 261 261 261 262 263 264 265 266 266
255 254 253 253 253 253 254 254 254 253 252 252 252 252 251 251 252 253 253 252 253 254 255 255 256 257 258 258 258 259 260 260 260 261 261 262 263 263 264 265 266 266 267
256 255 254 254 254 255 254 254 254 254 254 254 254 253 253 252 253 253 253 253 254 255 255 256 258 258 259 259 259 260 260 260 261 261 262 263 264 265 266 267 267 267 267
258 258 257 256 255 255 255 254 254 254 254 255 255 255 254 254 254 255 255 255 255 256 256 257 258 259 259 260 261 261 261 261 262 262 263 264 264 265 266 267 268 268 269
258 257 257 257 257 256 256 256 255 255 255 255 255 255 255 255 255 255 256 256 257 257 258 258 258 259 260 261 262 262 262 262 262 263 264 265 266 267 268 268 269 269 269
258 259 258 259 259 259 258 257 257 257 257 256 257 256 255 255 255 256 257 257 258 258 259 259 259 259 260 261 261 262 262 263 263 264 264 265 267 268 269 269 270 270 270
260 261 260 261 261 261 261 260 259 259 258 258 258 256 255 256 257 258 258 258 259 259 259 259 260 260 260 261 261 262 263 263 264 264 265 266 267 268 269 270 270 270 270
262 262 262 263 263 263 263 262 261 260 260 260 259 257 256 256 257 258 258 259 259 259 260 260 260 261 262 262 263 263 263 264 264 265 266 266 267 268 269 270 270 271 271
264 264 264 265 265 264 263 262 262 261 261 260 259 258 257 257 257 258 258 259 260 260 261 261 261 262 262 263 263 264 265 265 266 267 267 267 268 269 269 270 271 271 271
265 265 266 267 267 266 264 263 262 261 261 260 259 259 258 258 258 258 259 259 260 261 262 262 262 263 263 264 265 265 266 267 267 268 268 269 269 269 269 270 271 272 272
267 267 267 267 267 267 266 264 263 262 262 261 260 259 258 258 259 259 259 260 261 261 262 262 263 264 265 265 266 267 267 268 269 269 269 270 270 270 270 271 271 271 271
269 269 268 268 267 267 268 267 265 264 264 263 261 260 260 259 259 260 260 261 262 262 262 263 264 265 266 267 268 269 269 269 270 270 270 271 271 271 272 271 271 271 270
271 270 269 269 268 268 268 268 266 265 265 264 264 263 262 260 260 260 261 262 263 264 265 266 266 267 267 267 268 269 269 270 271 271 272 272 272 272 272 272 271 271 271
Height
5676 5679 5683 5686 5690 5693 5697 5701 5704 5707 5711 5714 5717 5720 5723 5726 5729 5732 5735 5738 5740 5743 5745 5748 5750 5753 5755 5757 5759 5761 5763 5765 5766 5768 5770 5771 5773 5774 5775 5776 5777 5778 5778
5664 5668 5671 5675 5678 5682 5686 5689 5693 5696 5700 5702 5705 5709 5712 5715 5718 5721 5724 5727 5730 5733 5736 5739 5741 5743 5746 5748 5750 5752 5754 5756 5758 5760 5761 5763 5765 5765 5766 5767 5768 5769 5770
5653 5656 5660 5663 5666 5670 5674 5677 5681 5684 5688 5691 5694 5698 5701 5704 5707 5710 5713 5717 5720 5723 5726 5728 5731 5734 5736 5739 5741 5743 5745 5747 5749 5750 5752 5754 5755 5756 5758 5758 5759 5760 5761
5642 5645 5648 5651 5655 5658 5662 5665 5669 5672 5676 5679 5683 5686 5689 5692 5695 5698 5702 5705 5708 5711 5714 5718 5720 5723 5726 5728 5731 5733 5735 5737 5739 5740 5742 5744 5745 5747 5748 5749 5750 5750 5751
5631 5634 5636 5640 5643 5646 5650 5653 5657 5660 5664 5667 5671 5674 5677 5680 5682 5685 5689 5692 5696 5699 5702 5706 5709 5712 5715 5718 5720 5722 5724 5727 5729 5730 5732 5734 5735 5736 5738 5739 5740 5741 5741
5620 5622 5625 5628 5631 5634 5638 5641 5645 5648 5652 5655 5658 5661 5664 5667 5670 5673 5676 5679 5683 5687 5690 5694 5697 5700 5703 5706 5708 5711 5713 5715 5717 5719 5721 5723 5724 5726 5727 5728 5729 5730 5731
5609 5611 5614 5617 5620 5623 5627 5630 5633 5636 5640 5643 5646 5648 5651 5654 5657 5660 5663 5666 5670 5673 5677 5681 5685 5688 5691 5694 5696 5699 5702 5704 5706 5708 5710 5712 5713 5714 5715 5717 5718 5719 5720
5598 5601 5603 5606 5609 5612 5615 5618 5621 5625 5628 5631 5633 5636 5638 5641 5644 5647 5650 5654 5657 5661 5665 5668 5672 5675 5678 5681 5684 5687 5690 5692 5694 5696 5698 5699 5701 5702 5703 5705 5706 5707 5708
5587 5589 5592 5595 5598 5601 5604 5607 5610 5613 5616 5618 5621 5623 5626 5629 5631 5635 5638 5641 5644 5648 5651 5655 5659 5662 5665 5668 5671 5674 5677 5679 5681 5683 5685 5687 5688 5689 5690 5691 5693 5694 5695
5575 5578 5581 5584 5587 5590 5592 5595 5598 5601 5604 5606 5609 5611 5614 5617 5619 5622 5625 5628 5632 5635 5638 5642 5645 5649 5652 5654 5657 5660 5663 5666 5668 5670 5672 5673 5675 5676 5677 5678 5679 5680 5681
5564 5566 5569 5572 5575 5577 5580 5583 5586 5589 5591 5594 5597 5599 5602 5604 5607 5609 5612 5615 5618 5622 5625 5628 5632 5635 5638 5641 5644 5647 5649 5652 5654 5656 5658 5659 5661 5662 5663 5664 5665 5666 5667
5553 5555 5557 5560 5563 5565 5568 5571 5574 5576 5579 5582 5584 5587 5589 5592 5594 5597 5600 5602 5605 5609 5612 5615 5618 5621 5624 5627 5630 5633 5635 5637 5639 5641 5643 5645 5646 5648 5649 5650 5651 5652 5652
5541 5543 5546 5548 5551 5553 5556 5559 5561 5564 5566 5569 5571 5574 5577 5579 5582 5584 5587 5590 5593 5596 5598 5601 5604 5607 5610 5613 5616 5618 5621 5623 5625 5627 5628 5630 5631 5633 5634 5635 5636 5637 5637
5530 5532 5534 5536 5538 5541 5543 5546 5548 5551 5553 5556 5558 5561 5564 5566 5569 5571 5574 5577 5580 5583 5585 5588 5591 5593 5596 5598 5601 5603 5606 5608 5610 5612 5613 5614 5616 5617 5618 5619 5620 5621 5621
5519 5521 5522 5524 5526 5528 5531 5533 5535 5537 5540 5542 5545 5548 5550 5553 5555 5558 5561 5564 5567 5569 5572 5575 5577 5580 5582 5584 5586 5589 5591 5593 5594 5596 5598 5599 5600 5601 5602 5603 5604 5604 5605
5508 5510 5511 5513 5515 5516 5518 5520 5522 5524 5527 5529 5532 5534 5537 5539 5542 5545 5547 5550 5553 5556 5559 5561 5563 5566 5568 5570 5571 5574 5576 5578 5579 5581 5582 5583 5584 5585 5585 5586 5587 5587 5588
5498 5499 5501 5502 5503 5505 5506 5508 5510 5512 5514 5516 5518 5521 5523 5526 5529 5531 5534 5536 5539 5542 5545 5547 5549 5551 5553 5555 5556 5558 5560 5562 5564 5565 5566 5567 5568 5568 5569 5569 5570 5570 5570
5487 5489 5490 5491 5492 5493 5494 5496 5498 5500 5501 5503 5505 5507 5510 5512 5515 5518 5520 5523 5525 5528 5530 5532 5534 5536 5538 5539 5541 5542 5544 5546 5548 5549 5550 5551 5552 5552 5552 5552 5553 5553 5553
5477 5478 5479 5480 5481 5482 5483 5484 5486 5487 5489 5491 5492 5494 5497 5499 5502 5504 5506 5508 5511 5513 5515 5517 5519 5521 5522 5523 5525 5526 5528 5530 5531 5532 5533 5534 5535 5535 5535 5536 5536 5536 5535
5467 5468 5468 5469 5470 5470 5471 5472 5474 5475 5477 5478 5480 5481 5483 5486 5488 5491 5492 5494 5496 5498 5500 5502 5503 5505 5507 5508 5509 5510 5512 5514 5516 5517 5517 5518 5518 5517 5517 5517 5518 5518 5517
5457 5457 5458 5458 5459 5459 5459 5460 5462 5463 5464 5465 5467 5469 5470 5473 5475 5477 5478 5480 5482 5484 5485 5487 5489 5490 5491 5493 5493 5494 5495 5497 5498 5500 5500 5500 5500 5500 5500 5500 5500 5500 5499
5447 5447 5447 5448 5448 5448 5448 5449 5450 5451 5451 5453 5454 5456 5458 5459 5461 5463 5465 5466 5468 5469 5471 5472 5474 5475 5476 5477 5478 5478 5479 5480 5481 5483 5483 5483 5483 5482 5482 5482 5482 5481 5481
5437 5437 5437 5437 5437 5437 5437 5438 5438 5439 5440 5441 5442 5444 5445 5447 5448 5450 5452 5453 5454 5456 5457 5458 5459 5460 5461 5462 5462 5462 5463 5463 5464 5465 5465 5465 5465 5465 5465 5465 5464 5464 5463
5427 5427 5427 5427 5427 5427 5427 5427 5427 5428 5428 5430 5431 5432 5433 5435 5436 5437 5439 5440 5441 5442 5444 5444 5445 5446 5447 5447 5447 5447 5447 5447 5447 5448 5448 5448 5448 5448 5448 5447 5447 5446 5446
5418 5418 5417 5417 5417 5417 5417 5417 5417 5417 5418 5419 5420 5421 5422 5423 5424 5425 5426 5427 5429 5429 5430 5431 5431 5432 5433 5432 5432 5431 5432 5431 5431 5431 5432 5432 5432 5431 5431 5430 5430 5429 5428
5408 5408 5408 5407 5407 5407 5407 5407 5407 5407 5408 5408 5409 5409 5410 5411 5412 5413 5414 5414 5415 5416 5416 5417 5417 5418 5418 5418 5417 5417 5417 5416 5416 5415 5416 5416 5416 5415 5415 5414 5414 5413 5412